RYR74YD LEPA-EDNY

Flight info

Callsign RYR74YD
Flight time 1h 33m
Altitude 34000
Route MEROS LAPIT CHELY LUMAS UNANA STP RAPED PIGOS EKSID NOSTA NOPMU ASBOP ASTIG ABESI N851 UTAVO SOPER N851 ROLSA
Aircraft B738/M-VGDW/C

Departure

Time 2026-04-12 06:32
Airport Palma de Mallorca Airport (LEPA)

Arrival

Time 2026-04-12 08:06
Airport Bodensee Airport Friedrichshafen (EDNY)
Time Latitude Longitude Altitude Speed Heading
2026-04-12 06:17 39.54834 2.73571 31 ft 0 kts 58°
2026-04-12 06:24 39.54833 2.73567 31 ft 2 kts 58°
2026-04-12 06:24 39.54825 2.73551 31 ft 2 kts 58°
2026-04-12 06:25 39.54817 2.73534 31 ft 2 kts 58°
2026-04-12 06:25 39.54809 2.73517 30 ft 2 kts 58°
2026-04-12 06:25 39.54801 2.73501 31 ft 2 kts 58°
2026-04-12 06:25 39.54794 2.73486 31 ft 0 kts 58°
2026-04-12 06:26 39.54794 2.73485 31 ft 0 kts 58°
2026-04-12 06:28 39.54796 2.73506 31 ft 4 kts 105°
2026-04-12 06:28 39.54770 2.73532 31 ft 5 kts 150°
2026-04-12 06:29 39.54731 2.73562 32 ft 7 kts 149°
2026-04-12 06:29 39.54683 2.73599 33 ft 8 kts 148°
2026-04-12 06:29 39.54620 2.73632 33 ft 11 kts 168°
2026-04-12 06:29 39.54540 2.73603 33 ft 15 kts 235°
2026-04-12 06:30 39.54476 2.73469 33 ft 19 kts 238°
2026-04-12 06:30 39.54399 2.73309 33 ft 22 kts 238°
2026-04-12 06:30 39.54299 2.73209 33 ft 17 kts 133°
2026-04-12 06:30 39.54277 2.73352 33 ft 15 kts 94°
2026-04-12 06:31 39.54280 2.73492 33 ft 16 kts 69°
2026-04-12 06:31 39.54394 2.73741 32 ft 57 kts 58°
2026-04-12 06:31 39.54697 2.74382 26 ft 105 kts 58°
2026-04-12 06:31 39.55159 2.75359 64 ft 139 kts 58°
2026-04-12 06:32 39.55661 2.76411 498 ft 134 kts 56°
2026-04-12 06:32 39.56223 2.77402 1129 ft 148 kts 58°
2026-04-12 06:32 39.56718 2.78650 1720 ft 157 kts 60°
2026-04-12 06:32 39.57251 2.79894 2275 ft 167 kts 58°
2026-04-12 06:33 39.57899 2.81255 2739 ft 186 kts 59°
2026-04-12 06:33 39.58595 2.82760 3300 ft 201 kts 60°
2026-04-12 06:33 39.59337 2.84379 3954 ft 214 kts 60°
2026-04-12 06:33 39.60122 2.86102 4659 ft 226 kts 61°
2026-04-12 06:34 39.60931 2.87869 5381 ft 235 kts 61°
2026-04-12 06:34 39.61792 2.89727 6109 ft 245 kts 62°
2026-04-12 06:34 39.62678 2.91675 6896 ft 252 kts 64°
2026-04-12 06:34 39.63503 2.93716 7712 ft 254 kts 66°
2026-04-12 06:35 39.65171 2.97843 9386 ft 259 kts 65°
2026-04-12 06:35 39.66040 2.99897 10216 ft 261 kts 65°
2026-04-12 06:35 39.66945 3.02005 10874 ft 270 kts 65°
2026-04-12 06:36 39.67873 3.04164 11471 ft 280 kts 65°
2026-04-12 06:36 39.68835 3.06416 12070 ft 289 kts 65°
2026-04-12 06:36 39.69822 3.08729 12661 ft 298 kts 65°
2026-04-12 06:36 39.70855 3.11133 13258 ft 307 kts 65°
2026-04-12 06:37 39.71910 3.13577 13850 ft 315 kts 65°
2026-04-12 06:37 39.72992 3.16055 14364 ft 325 kts 64°
2026-04-12 06:37 39.74150 3.18668 14838 ft 336 kts 64°
2026-04-12 06:37 39.75324 3.21324 15304 ft 347 kts 64°
2026-04-12 06:38 39.76571 3.24103 15779 ft 358 kts 62°
2026-04-12 06:38 39.78040 3.26834 16255 ft 370 kts 56°
2026-04-12 06:38 39.79596 3.29355 16702 ft 380 kts 54°
2026-04-12 06:38 39.81343 3.32011 17173 ft 389 kts 52°
2026-04-12 06:39 39.83143 3.34670 17636 ft 398 kts 51°
2026-04-12 06:39 39.84974 3.37367 18099 ft 405 kts 51°
2026-04-12 06:39 39.86851 3.40149 18572 ft 413 kts 52°
2026-04-12 06:39 39.88778 3.43023 19057 ft 420 kts 52°
2026-04-12 06:40 39.90702 3.45906 19532 ft 427 kts 51°
2026-04-12 06:40 39.92652 3.48833 20014 ft 433 kts 52°
2026-04-12 06:40 39.94633 3.51812 20628 ft 435 kts 52°
2026-04-12 06:40 39.96588 3.54750 21305 ft 435 kts 52°
2026-04-12 06:41 39.98568 3.57730 22001 ft 434 kts 51°
2026-04-12 06:41 40.00547 3.60714 22570 ft 436 kts 51°
2026-04-12 06:41 40.02533 3.63718 23130 ft 439 kts 51°
2026-04-12 06:41 40.04518 3.66725 23697 ft 440 kts 52°
2026-04-12 06:42 40.06497 3.69729 24263 ft 442 kts 52°
2026-04-12 06:42 40.08514 3.72793 24837 ft 443 kts 52°
2026-04-12 06:42 40.10511 3.75829 25415 ft 444 kts 52°
2026-04-12 06:42 40.12521 3.78884 25993 ft 444 kts 52°
2026-04-12 06:43 40.14503 3.81903 26558 ft 444 kts 52°
2026-04-12 06:43 40.16521 3.84979 27075 ft 445 kts 52°
2026-04-12 06:43 40.18509 3.88014 27580 ft 445 kts 53°
2026-04-12 06:43 40.20535 3.91109 28093 ft 446 kts 53°
2026-04-12 06:44 40.22531 3.94163 28602 ft 446 kts 53°
2026-04-12 06:44 40.24562 3.97275 29118 ft 446 kts 53°
2026-04-12 06:44 40.26569 4.00351 29627 ft 445 kts 53°
2026-04-12 06:44 40.28572 4.03423 30144 ft 444 kts 53°
2026-04-12 06:45 40.30582 4.06511 30676 ft 443 kts 53°
2026-04-12 06:45 40.32560 4.09555 31209 ft 441 kts 53°
2026-04-12 06:45 40.34548 4.12618 31747 ft 439 kts 54°
2026-04-12 06:45 40.36493 4.15613 32282 ft 436 kts 54°
2026-04-12 06:46 40.38445 4.18623 32818 ft 433 kts 54°
2026-04-12 06:46 40.40404 4.21643 33350 ft 431 kts 54°
2026-04-12 06:46 40.42326 4.24613 33608 ft 433 kts 54°
2026-04-12 06:46 40.44291 4.27662 33730 ft 439 kts 54°
2026-04-12 06:47 40.46291 4.30716 33816 ft 442 kts 53°
2026-04-12 06:47 40.50889 4.35914 33822 ft 444 kts 32°
2026-04-12 06:47 40.53805 4.37448 33827 ft 451 kts 19°
2026-04-12 06:48 40.56849 4.38399 33828 ft 456 kts 14°
2026-04-12 06:48 40.63113 4.39917 33831 ft 456 kts 13°
2026-04-12 06:49 40.69367 4.41326 33831 ft 456 kts 13°
2026-04-12 06:49 40.75614 4.42768 33834 ft 457 kts 12°
2026-04-12 06:50 40.81902 4.44249 33844 ft 458 kts 13°
2026-04-12 06:50 40.88158 4.45737 33844 ft 458 kts 12°
2026-04-12 06:51 40.94434 4.47241 33847 ft 459 kts 13°
2026-04-12 06:51 41.00676 4.48749 33857 ft 458 kts 13°
2026-04-12 06:52 41.06935 4.50275 33853 ft 458 kts 12°
2026-04-12 06:52 41.13201 4.51801 33857 ft 458 kts 12°
2026-04-12 06:53 41.19445 4.53319 33864 ft 457 kts 12°
2026-04-12 06:53 41.25720 4.54847 33872 ft 457 kts 12°
2026-04-12 06:54 41.31953 4.56376 33874 ft 459 kts 12°
2026-04-12 06:54 41.38250 4.57924 33877 ft 460 kts 12°
2026-04-12 06:55 41.44517 4.59463 33877 ft 459 kts 12°
2026-04-12 06:55 41.50816 4.61015 33878 ft 460 kts 12°
2026-04-12 06:56 41.57079 4.62566 33875 ft 460 kts 12°
2026-04-12 06:56 41.63347 4.64111 33873 ft 459 kts 12°
2026-04-12 06:57 41.69613 4.65777 33874 ft 457 kts 18°
2026-04-12 06:57 41.72545 4.67263 33877 ft 453 kts 29°
2026-04-12 06:57 41.75234 4.69461 33881 ft 448 kts 40°
2026-04-12 06:58 41.79886 4.74940 33882 ft 445 kts 48°
2026-04-12 06:58 41.84274 4.80759 33883 ft 444 kts 49°
2026-04-12 06:59 41.88629 4.86622 33883 ft 445 kts 49°
2026-04-12 06:59 41.93019 4.92513 33883 ft 445 kts 49°
2026-04-12 07:00 41.99578 5.01280 33886 ft 446 kts 48°
2026-04-12 07:00 42.03970 5.07141 33880 ft 445 kts 48°
2026-04-12 07:01 42.08369 5.13018 33882 ft 447 kts 48°
2026-04-12 07:01 42.12782 5.18920 33883 ft 447 kts 48°
2026-04-12 07:02 42.17173 5.24804 33883 ft 446 kts 48°
2026-04-12 07:02 42.21568 5.30719 33877 ft 447 kts 48°
2026-04-12 07:03 42.25949 5.36625 33872 ft 447 kts 48°
2026-04-12 07:03 42.30344 5.42559 33871 ft 449 kts 48°
2026-04-12 07:04 42.34750 5.48513 33876 ft 450 kts 48°
2026-04-12 07:04 42.39142 5.54467 33879 ft 449 kts 48°
2026-04-12 07:05 42.43540 5.60434 33877 ft 449 kts 48°
2026-04-12 07:05 42.47946 5.66428 33880 ft 449 kts 49°
2026-04-12 07:06 42.52352 5.72441 33883 ft 450 kts 49°
2026-04-12 07:06 42.56756 5.78469 33885 ft 451 kts 48°
2026-04-12 07:07 42.61176 5.84524 33892 ft 452 kts 48°
2026-04-12 07:07 42.65583 5.90569 33890 ft 451 kts 48°
2026-04-12 07:08 42.69972 5.96608 33895 ft 451 kts 48°
2026-04-12 07:08 42.74369 6.02679 33887 ft 451 kts 48°
2026-04-12 07:09 42.78758 6.08741 33893 ft 454 kts 48°
2026-04-12 07:09 42.83165 6.14835 33890 ft 451 kts 48°
2026-04-12 07:10 42.87691 6.20789 33910 ft 455 kts 43°
2026-04-12 07:10 42.92513 6.26366 33907 ft 455 kts 41°
2026-04-12 07:11 42.97407 6.31862 33913 ft 454 kts 41°
2026-04-12 07:11 43.02267 6.37362 33909 ft 457 kts 41°
2026-04-12 07:12 43.07125 6.42919 33909 ft 458 kts 41°
2026-04-12 07:12 43.11995 6.48531 33908 ft 458 kts 41°
2026-04-12 07:13 43.16842 6.54133 33899 ft 460 kts 41°
2026-04-12 07:13 43.21529 6.59977 33897 ft 457 kts 48°
2026-04-12 07:14 43.25573 6.66700 33889 ft 453 kts 55°
2026-04-12 07:14 43.29290 6.73670 33892 ft 456 kts 56°
2026-04-12 07:15 43.32950 6.80697 33896 ft 457 kts 56°
2026-04-12 07:15 43.36656 6.87811 33901 ft 457 kts 56°
2026-04-12 07:16 43.40344 6.94871 33910 ft 456 kts 56°
2026-04-12 07:16 43.44046 7.01970 33905 ft 459 kts 56°
2026-04-12 07:17 43.47729 7.09029 33917 ft 456 kts 56°
2026-04-12 07:17 43.51434 7.16138 33920 ft 458 kts 56°
2026-04-12 07:18 43.55135 7.23247 33916 ft 458 kts 55°
2026-04-12 07:18 43.58808 7.30341 33920 ft 459 kts 56°
2026-04-12 07:19 43.62507 7.37494 33919 ft 460 kts 55°
2026-04-12 07:19 43.66214 7.44686 33915 ft 459 kts 55°
2026-04-12 07:20 43.69900 7.51849 33917 ft 460 kts 55°
2026-04-12 07:20 43.73581 7.59005 33915 ft 460 kts 55°
2026-04-12 07:21 43.77296 7.66249 33912 ft 462 kts 56°
2026-04-12 07:21 43.81046 7.73439 33919 ft 464 kts 53°
2026-04-12 07:22 43.85545 7.79840 33936 ft 467 kts 40°
2026-04-12 07:22 43.90647 7.85327 33935 ft 464 kts 36°
2026-04-12 07:23 43.96248 7.89632 33937 ft 461 kts 18°
2026-04-12 07:23 44.02364 7.92092 33943 ft 461 kts 12°
2026-04-12 07:24 44.08609 7.94134 33949 ft 460 kts 10°
2026-04-12 07:24 44.14822 7.96163 33948 ft 460 kts 12°
2026-04-12 07:25 44.20966 7.98548 33949 ft 462 kts 14°
2026-04-12 07:25 44.27145 8.01120 33953 ft 462 kts 14°
2026-04-12 07:26 44.33264 8.03680 33961 ft 463 kts 14°
2026-04-12 07:26 44.39445 8.06249 33962 ft 463 kts 13°
2026-04-12 07:27 44.45605 8.08797 33964 ft 461 kts 13°
2026-04-12 07:27 44.51757 8.11335 33968 ft 463 kts 13°
2026-04-12 07:28 44.57911 8.13876 33974 ft 461 kts 13°
2026-04-12 07:28 44.64032 8.16407 33979 ft 462 kts 13°
2026-04-12 07:29 44.70171 8.18952 33977 ft 461 kts 13°
2026-04-12 07:29 44.76325 8.21510 33984 ft 462 kts 13°
2026-04-12 07:30 44.82487 8.24071 33986 ft 462 kts 13°
2026-04-12 07:30 44.88625 8.26628 33994 ft 461 kts 13°
2026-04-12 07:31 44.94724 8.29245 33986 ft 461 kts 15°
2026-04-12 07:31 45.00685 8.32566 33998 ft 464 kts 20°
2026-04-12 07:32 45.06654 8.36270 34000 ft 462 kts 20°
2026-04-12 07:32 45.12524 8.39939 34001 ft 463 kts 20°
2026-04-12 07:33 45.18378 8.43565 34001 ft 462 kts 20°
2026-04-12 07:33 45.24338 8.47233 34000 ft 462 kts 20°
2026-04-12 07:34 45.30246 8.50855 34002 ft 464 kts 20°
2026-04-12 07:34 45.36143 8.54465 34005 ft 463 kts 20°
2026-04-12 07:35 45.42079 8.58108 34007 ft 462 kts 19°
2026-04-12 07:35 45.47989 8.61749 34006 ft 461 kts 20°
2026-04-12 07:36 45.53851 8.65363 34008 ft 461 kts 20°
2026-04-12 07:36 45.59721 8.68987 34010 ft 462 kts 20°
2026-04-12 07:37 45.65618 8.72638 34010 ft 461 kts 20°
2026-04-12 07:37 45.71519 8.76304 34013 ft 460 kts 20°
2026-04-12 07:38 45.77383 8.79958 34010 ft 461 kts 20°
2026-04-12 07:38 45.83247 8.83612 34011 ft 462 kts 20°
2026-04-12 07:39 45.89146 8.87295 34011 ft 462 kts 20°
2026-04-12 07:39 45.94999 8.90956 34007 ft 463 kts 20°
2026-04-12 07:40 46.00892 8.94661 34008 ft 461 kts 20°
2026-04-12 07:40 46.06731 8.98347 34008 ft 461 kts 20°
2026-04-12 07:41 46.12632 9.02010 34003 ft 459 kts 17°
2026-04-12 07:41 46.18162 9.04023 34002 ft 446 kts 357°
2026-04-12 07:42 46.23279 9.03697 34002 ft 444 kts 349°
2026-04-12 07:43 46.34672 9.01871 34015 ft 444 kts 348°
2026-04-12 07:43 46.40799 9.00954 34014 ft 444 kts 348°
2026-04-12 07:44 46.46928 9.00091 34006 ft 444 kts 349°
2026-04-12 07:44 46.53051 8.99256 34005 ft 445 kts 348°
2026-04-12 07:45 46.59224 8.98418 34012 ft 442 kts 348°
2026-04-12 07:45 46.62251 8.98007 33831 ft 447 kts 349°
2026-04-12 07:45 46.65339 8.97584 33419 ft 445 kts 349°
2026-04-12 07:46 46.68387 8.97172 32953 ft 440 kts 349°
2026-04-12 07:46 46.71434 8.96763 32379 ft 438 kts 349°
2026-04-12 07:46 46.74443 8.96359 31801 ft 436 kts 350°
2026-04-12 07:46 46.77468 8.95950 31221 ft 434 kts 350°
2026-04-12 07:47 46.80432 8.95547 30646 ft 432 kts 350°
2026-04-12 07:47 46.83438 8.95137 30064 ft 430 kts 350°
2026-04-12 07:47 46.86405 8.94733 29488 ft 428 kts 351°
2026-04-12 07:47 46.89326 8.94335 28922 ft 426 kts 351°
2026-04-12 07:48 46.92254 8.93930 28353 ft 424 kts 351°
2026-04-12 07:48 46.95203 8.93522 27775 ft 422 kts 351°
2026-04-12 07:48 46.98081 8.93125 27211 ft 420 kts 351°
2026-04-12 07:48 47.01006 8.92722 26638 ft 418 kts 351°
2026-04-12 07:49 47.03885 8.92324 26069 ft 416 kts 351°
2026-04-12 07:49 47.06729 8.91929 25510 ft 414 kts 351°
2026-04-12 07:49 47.09602 8.91533 24946 ft 413 kts 351°
2026-04-12 07:49 47.12443 8.91143 24394 ft 410 kts 351°
2026-04-12 07:50 47.15260 8.90753 23849 ft 408 kts 352°
2026-04-12 07:50 47.18083 8.90365 23335 ft 405 kts 352°
2026-04-12 07:50 47.20855 8.89998 22868 ft 402 kts 353°
2026-04-12 07:50 47.23666 8.90051 22396 ft 401 kts
2026-04-12 07:51 47.26364 8.90824 21930 ft 399 kts 15°
2026-04-12 07:51 47.28922 8.92312 21466 ft 395 kts 26°
2026-04-12 07:51 47.31215 8.94450 21027 ft 386 kts 38°
2026-04-12 07:51 47.33137 8.97124 20541 ft 378 kts 50°
2026-04-12 07:52 47.34653 9.00237 19925 ft 374 kts 62°
2026-04-12 07:52 47.35812 9.03599 19288 ft 370 kts 66°
2026-04-12 07:52 47.36880 9.07054 18647 ft 368 kts 67°
2026-04-12 07:52 47.37920 9.10434 18021 ft 366 kts 66°
2026-04-12 07:53 47.39020 9.13824 17386 ft 364 kts 65°
2026-04-12 07:53 47.40212 9.17096 16770 ft 362 kts 58°
2026-04-12 07:53 47.41854 9.19853 16162 ft 360 kts 35°
2026-04-12 07:53 47.44060 9.21365 15569 ft 354 kts 11°
2026-04-12 07:54 47.46485 9.21912 15033 ft 347 kts
2026-04-12 07:54 47.48851 9.22131 14580 ft 339 kts 360°
2026-04-12 07:54 47.51165 9.22322 14201 ft 330 kts
2026-04-12 07:54 47.53415 9.22591 13879 ft 322 kts
2026-04-12 07:55 47.55630 9.22926 13546 ft 318 kts
2026-04-12 07:55 47.57811 9.23107 13175 ft 314 kts 359°
2026-04-12 07:55 47.59994 9.23180 12865 ft 312 kts 358°
2026-04-12 07:55 47.62160 9.23206 12522 ft 309 kts 358°
2026-04-12 07:56 47.64279 9.23224 12181 ft 307 kts 358°
2026-04-12 07:56 47.66410 9.23250 11842 ft 305 kts 359°
2026-04-12 07:56 47.68523 9.23286 11503 ft 303 kts 359°
2026-04-12 07:56 47.70628 9.23327 11160 ft 301 kts 360°
2026-04-12 07:57 47.72669 9.23708 10805 ft 298 kts 20°
2026-04-12 07:57 47.74352 9.25383 10455 ft 291 kts 51°
2026-04-12 07:57 47.75493 9.27832 10105 ft 286 kts 62°
2026-04-12 07:57 47.76432 9.30400 9764 ft 283 kts 66°
2026-04-12 07:58 47.77268 9.33043 9421 ft 281 kts 68°
2026-04-12 07:58 47.78068 9.35682 9078 ft 280 kts 68°
2026-04-12 07:58 47.78851 9.38298 8741 ft 278 kts 68°
2026-04-12 07:58 47.79622 9.40909 8389 ft 276 kts 70°
2026-04-12 07:59 47.80233 9.43591 8042 ft 273 kts 76°
2026-04-12 07:59 47.80704 9.46315 7692 ft 271 kts 77°
2026-04-12 07:59 47.81142 9.49027 7343 ft 270 kts 77°
2026-04-12 07:59 47.81563 9.51720 6987 ft 265 kts 77°
2026-04-12 08:00 47.81966 9.54340 6637 ft 259 kts 76°
2026-04-12 08:00 47.82350 9.56940 6319 ft 252 kts 77°
2026-04-12 08:00 47.82704 9.59421 6110 ft 244 kts 77°
2026-04-12 08:00 47.82852 9.61913 5876 ft 240 kts 92°
2026-04-12 08:01 47.82610 9.64315 5643 ft 237 kts 108°
2026-04-12 08:01 47.81680 9.66332 5484 ft 236 kts 136°
2026-04-12 08:01 47.80444 9.67878 5362 ft 230 kts 141°
2026-04-12 08:01 47.79102 9.69148 5247 ft 228 kts 150°
2026-04-12 08:02 47.77713 9.70207 5104 ft 219 kts 152°
2026-04-12 08:02 47.76339 9.71020 4938 ft 211 kts 171°
2026-04-12 08:02 47.74928 9.70616 4715 ft 209 kts 210°
2026-04-12 08:02 47.73788 9.69279 4380 ft 212 kts 222°
2026-04-12 08:03 47.72879 9.67600 3922 ft 209 kts 247°
2026-04-12 08:03 47.72423 9.65610 3474 ft 203 kts 255°
2026-04-12 08:03 47.71995 9.63658 3126 ft 194 kts 249°
2026-04-12 08:03 47.71370 9.61984 2902 ft 180 kts 236°
2026-04-12 08:04 47.70712 9.60492 2654 ft 166 kts 242°
2026-04-12 08:04 47.70208 9.59024 2426 ft 153 kts 243°
2026-04-12 08:04 47.69667 9.57709 2259 ft 147 kts 238°
2026-04-12 08:04 47.69111 9.56418 2028 ft 146 kts 240°
2026-04-12 08:05 47.68650 9.55143 1837 ft 140 kts 244°
2026-04-12 08:05 47.68189 9.53895 1626 ft 136 kts 239°
2026-04-12 08:05 47.67724 9.52714 1420 ft 135 kts 241°
2026-04-12 08:05 47.67277 9.51530 1359 ft 109 kts 240°
2026-04-12 08:06 47.67027 9.50881 1350 ft 33 kts 240°
2026-04-12 08:06 47.66956 9.50740 1348 ft 16 kts 215°
2026-04-12 08:06 47.66874 9.50666 1346 ft 6 kts 209°
2026-04-12 08:06 47.66827 9.50630 1346 ft 9 kts 205°
2026-04-12 08:07 47.66766 9.50647 1346 ft 10 kts 103°
2026-04-12 08:07 47.66795 9.50747 1348 ft 11 kts 59°
2026-04-12 08:07 47.66835 9.50850 1350 ft 11 kts 62°
2026-04-12 08:07 47.66873 9.50959 1352 ft 12 kts 61°
2026-04-12 08:08 47.66921 9.51081 1351 ft 15 kts 60°
2026-04-12 08:08 47.66976 9.51220 1354 ft 15 kts 60°
2026-04-12 08:08 47.67032 9.51361 1356 ft 16 kts 60°
2026-04-12 08:08 47.67091 9.51517 1358 ft 17 kts 60°
2026-04-12 08:09 47.67155 9.51681 1360 ft 19 kts 60°
2026-04-12 08:09 47.67218 9.51843 1363 ft 17 kts 60°
2026-04-12 08:09 47.67273 9.51987 1366 ft 12 kts 61°
2026-04-12 08:09 47.67316 9.52102 1366 ft 13 kts 61°
2026-04-12 08:10 47.67351 9.52206 1367 ft 5 kts 90°
2026-04-12 08:10 47.67328 9.52243 1366 ft 4 kts 149°
2026-04-12 08:10 47.67320 9.52250 1366 ft 0 kts 150°
2026-04-12 08:10 47.67320 9.52249 1366 ft 0 kts 150°